Вернуться в каталог

ONEWEB-0641

АктивенСвязьPO
NORAD 55805·PAYLOAD·🇬🇧 United Kingdom

Запущен Mar 9, 2023 с Cape Canaveral Space Force Station

Loading…

Ближайшие Пролёты (ближайшие 24 часа)

TLE

СвежийSource: CelesTrak SupGP

Эпоха: Sep 14, 2026, 14:10 UTC

1 55805C 23029K   26257.59081435  .00000062  00000+0  15572-3 0  2573
2 55805  87.9107 287.1593 0002036  91.5150  22.5734 13.19724941    19

Отслеживайте ONEWEB-0641 в реальном времени с AllMySat

Download on the App Store